This is the latest recevied weather packets stored in our database for station/object K5FEP. If no packets are shown the sender has not sent any weather packets the latest 10 day(s).
| Time | Temp. | Humidity | Pressure | Rain* | Wind** | Luminosity | Snow |
|---|---|---|---|---|---|---|---|
| 1788628631 | 32.78° C | 51% | 1010.7 hPa | 0 mm | - | 263 W/m² | - |
| 1788628326 | 33.33° C | 51% | 1010.8 hPa | 0 mm | - | 359 W/m² | - |
| 1788628024 | 33.33° C | 50% | 1010.8 hPa | 0 mm | - | 258 W/m² | - |
| 1788627724 | 33.89° C | 50% | 1010.8 hPa | 0 mm | - | 309 W/m² | - |
| 1788627424 | 33.89° C | 50% | 1010.9 hPa | 0 mm | - | 566 W/m² | - |
| 1788627119 | 33.89° C | 50% | 1010.8 hPa | 0 mm | - | 618 W/m² | - |
| 1788626814 | 33.89° C | 50% | 1010.7 hPa | 0 mm | - | 1018 W/m² | - |
| 1788626513 | 33.33° C | 52% | 1011 hPa | 0 mm | - | 677 W/m² | - |
| 1788626209 | 33.33° C | 53% | 1011 hPa | 0 mm | - | 491 W/m² | - |
| 1788625906 | 33.33° C | 53% | 1011.2 hPa | 0 mm | - | 458 W/m² | - |
| 1788625601 | 33.33° C | 52% | 1011.2 hPa | 0 mm | - | 567 W/m² | - |
| 1788625301 | 33.33° C | 53% | 1011.2 hPa | 0 mm | - | 568 W/m² | - |
| 1788625001 | 33.33° C | 53% | 1011.3 hPa | 0 mm | - | 752 W/m² | - |
| 1788624699 | 32.78° C | 54% | 1011.3 hPa | 0 mm | - | 803 W/m² | - |
| 1788624393 | 33.33° C | 54% | 1011.6 hPa | 0 mm | - | 315 W/m² | - |
| 1788624092 | 32.78° C | 53% | 1011.6 hPa | 0 mm | - | 535 W/m² | - |
| 1788623787 | 33.33° C | 52% | 1011.6 hPa | 0 mm | - | 464 W/m² | - |
| 1788623486 | 32.78° C | 53% | 1011.4 hPa | 0 mm | - | 433 W/m² | - |
| 1788623186 | 33.33° C | 51% | 1011.6 hPa | 0 mm | - | 409 W/m² | - |
| 1788622881 | 33.89° C | 49% | 1011.3 hPa | 0 mm | - | 479 W/m² | - |
| 1788622577 | 33.89° C | 50% | 1011.4 hPa | 0 mm | - | 601 W/m² | - |
| 1788622272 | 33.89° C | 50% | 1011.6 hPa | 0 mm | - | 853 W/m² | - |
| 1788621967 | 33.33° C | 51% | 1011.6 hPa | 0 mm | - | 695 W/m² | - |
| 1788621662 | 33.89° C | 50% | 1011.5 hPa | 0 mm | - | 755 W/m² | - |
| 1788621357 | 33.33° C | 50% | 1011.6 hPa | 0 mm | - | 752 W/m² | - |
* Rain latest hour (hover to see other rain measurements)
** Current wind speed in m/s (hover to see current wind gust speed)